This is the latest recevied weather packets stored in our database for station/object W4DHW-4. If no packets are shown the sender has not sent any weather packets the latest 10 day(s).
| Time | Temp. | Humidity | Pressure | Rain* | Wind** | Luminosity | Snow |
|---|---|---|---|---|---|---|---|
| 1777643301 | 11.67° C | 63% | 1016.5 hPa | 0 mm | - | 629 W/m² | - |
| 1777642997 | 12.22° C | 61% | 1016.7 hPa | 0 mm | - | 292 W/m² | - |
| 1777642694 | 12.22° C | 61% | 1016.7 hPa | 0 mm | - | 546 W/m² | - |
| 1777642391 | 12.22° C | 62% | 1016.7 hPa | 0 mm | - | 436 W/m² | - |
| 1777642087 | 11.67° C | 67% | 1016.4 hPa | 0 mm | - | 469 W/m² | - |
| 1777641784 | 11.11° C | 67% | 1016.3 hPa | 0 mm | - | 430 W/m² | - |
| 1777641484 | 11.11° C | 66% | 1016.6 hPa | 0 mm | - | 427 W/m² | - |
| 1777641179 | 11.11° C | 69% | 1016.5 hPa | 0 mm | - | 384 W/m² | - |
| 1777640876 | 11.11° C | 70% | 1016.5 hPa | 0 mm | - | 374 W/m² | - |
| 1777640573 | 10.56° C | 71% | 1016.6 hPa | 0 mm | - | 379 W/m² | - |
| 1777640269 | 10° C | 74% | 1016.6 hPa | 0 mm | - | 356 W/m² | - |
| 1777639965 | 10° C | 74% | 1016.4 hPa | 0 mm | - | 358 W/m² | - |
| 1777639663 | 9.44° C | 75% | 1016.5 hPa | 0 mm | - | 345 W/m² | - |
| 1777639361 | 9.44° C | 76% | 1016.8 hPa | 0 mm | - | 330 W/m² | - |
| 1777639055 | 8.89° C | 77% | 1016.6 hPa | 0 mm | - | 322 W/m² | - |
| 1777638753 | 8.89° C | 78% | 1016.5 hPa | 0 mm | - | 294 W/m² | - |
| 1777638448 | 8.89° C | 80% | 1016.6 hPa | 0 mm | - | 309 W/m² | - |
| 1777638146 | 8.33° C | 80% | 1016.7 hPa | 0 mm | - | 220 W/m² | - |
| 1777637841 | 8.89° C | 80% | 1016.5 hPa | 0 mm | - | 203 W/m² | - |
| 1777637538 | 8.89° C | 79% | 1016.6 hPa | 0 mm | - | 183 W/m² | - |
| 1777637235 | 8.89° C | 81% | 1016.5 hPa | 0 mm | - | 235 W/m² | - |
| 1777636932 | 7.78° C | 85% | 1016.8 hPa | 0 mm | - | 236 W/m² | - |
| 1777636628 | 6.67° C | 86% | 1016.7 hPa | 0 mm | - | 121 W/m² | - |
| 1777636325 | 6.67° C | 88% | 1016.5 hPa | 0 mm | - | 108 W/m² | - |
| 1777636024 | 6.11° C | 90% | 1016.7 hPa | 0 mm | - | 90 W/m² | - |
* Rain latest hour (hover to see other rain measurements)
** Current wind speed in m/s (hover to see current wind gust speed)